Regional Weather Roundup
Issued by NWS Midland/Odessa, TX

Skip options and go directly to product.
Home | Oldest Version | Previous Version | Current Version | All | Text Only | Save Text | Print | Product List | Glossary On

Skip product version selection by date and time.   
781
ASUS44 KMAF 300310
RWRMAF
MIDLAND AREA WEATHER ROUNDUP
NATIONAL WEATHER SERVICE MIDLAND TX
1000 PM CDT TUE JUL 29 2014

...IN SOUTHWEST TEXAS AND SOUTHEAST NEW MEXICO...

CITY           SKY/WX    TMP DP  RH WIND       PRES   REMARKS
ALPINE         PTCLDY    82  53  37 SE13G18   30.20R
ANDREWS        FAIR      78  63  59 E17G23    30.09R
ARTESIA        MOCLDY    81  64  57 N8        30.08R
BIG SPRING     MOCLDY    79  65  62 E20G28    30.10R
CARLSBAD       MOCLDY    89  51  27 SE6       30.04R
DRYDEN           N/A     92  49  22 E10       30.03R
FORT STOCKTON  CLEAR     87  48  25 SE16G23   30.07R
GUAD PASS      MOCLDY    76  56  49 NE15      30.24R
HOBBS          MOCLDY    82  61  47 E14G21    30.11R
MARFA          PTCLDY    77  48  36 SE9       30.19R
MIDLAND AIRPK  PTCLDY    81  64  57 E17       30.08R
MIDLAND INTL   PTCLDY    82  65  56 E17       30.07R
ODESSA           N/A     85  61  44 E10       30.07R
PECOS          CLEAR     90  51  26 E14G20    30.00R
PRESIDIO       FAIR      92  44  18 E3        29.99R
SEMINOLE       PTCLDY    80  61  52 E15G22    30.11R
SNYDER         LGT RAIN  73  69  88 E10       30.11S
WINK           PTCLDY    91  48  22 SE13      30.01R
$$
...OTHER STATIONS IN TEXAS...

CITY           SKY/WX    TMP DP  RH WIND       PRES   REMARKS
ABILENE        CLOUDY    75  66  73 S18       30.08S
AMARILLO       CLOUDY    70  61  73 SE13      30.15R
AUSTIN         PTCLDY    83  69  62 E3        30.04R
BROWNSVILLE    CLEAR     81  76  84 SE7       30.01R
CORPUS CHRISTI PTCLDY    82  74  76 SE13      30.00R
DALLAS FTW     MOCLDY    77  61  57 S3        30.05S
DEL RIO        CLEAR     93  55  27 E12       29.96R
EL PASO        MOCLDY    82  63  51 CALM        N/A
HOUSTON INT    PTCLDY    77  74  90 E5        30.02S
LUBBOCK        MOCLDY    75  63  66 SE13      30.12R
SAN ANGELO     MOCLDY    84  67  56 E12G21    30.06R
SAN ANTONIO    MOCLDY    89  69  51 E12       30.02R
WACO           PTCLDY    77  57  50 CALM      30.06R
WICHITA FALLS  NOT AVBL
$$
...OTHER LOCATIONS IN NEW MEXICO...

CITY           SKY/WX    TMP DP  RH WIND       PRES   REMARKS
ALAMAGORDO     CLOUDY    81  64  57 CALM      30.13R
ALBUQUERQUE    CLOUDY    72  64  76 SE7       30.20R
CANNON AFB     NOT AVBL
CLOVIS         NOT AVBL
HOLLOMAN AFB   CLOUDY    79  68  69 NW6       30.11R
ROSWELL        CLOUDY    77  68  73 CALM      30.08S
RUIDOSO        CLOUDY    64  57  77 S7        30.34R
SANTA FE       CLOUDY    65  58  78 NW3       30.25S
TRUTH OR CONSE CLOUDY    72  63  73 CALM      30.15R
TUCUMCARI      CLOUDY    75  64  68 SW10      30.13R
$$

USA.gov is the U.S. government's official web portal to all federal, state and local government web resources and services.